User: anonymous   Login
Location: Unspecified
(0.0000°N, 0.0000°E)
Time: 15:32:16
(UTC+01:00)
Language:

ARIANE 5 R/B - Orbit

View from above orbital plane
View from above orbital plane
View from above satellite
View from above satellite

Ground track
Ground track

The orbit data is extracted from the following two-line orbital elements,

1 28379U 04027B   15059.87906709 -.00000218  00000-0  28847-2 0  9991
2 28379 006.7000 255.8596 7295081 230.9723 347.9645 02.07923700 80671
Epoch (UTC): 28 February 2015 21:05:51
Eccentricity: 0.7295081
inclination: 6.7000°
perigee height: 635 km
apogee height: 38467 km
right ascension of ascending node: 255.8596°
argument of perigee: 230.9723°
revolutions per day: 2.07923700
mean anomaly at epoch: 347.9645°
orbit number at epoch: 8067

The dashed part of the orbit path shows where the satellite is in the earth's shadow,  

DLR